Location: Unspecified
(43.4680°N, 87.1740°E)
Time: 04:12:51
(UTC+00:00)

ISS - Pass Details

Date: 27 September 2021
Orbit: 417 x 423 km, 51.6° (Epoch: 20 October)

Event Time Altitude Azimuth Distance (km) Brightness Sun altitude
Rises 13:31:47 0° 300° (WNW) 2,365 1.6 -17.4°
Reaches altitude 10° 13:34:13 10° 316° (NW) 1,502 -0.1 -17.8°
Maximum altitude 13:36:55 22° 9° (N) 978 -1.9 -18.3°
Enters shadow 13:37:37 20° 28° (NNE) 1,022 -2.0 -18.4°
